OpenBCM V2.0.2 (Linux)

Packet Radio Mailbox

IZ3LSV

[San Dona' di P. JN]

 Login: GUEST





  
LU9DCE > KEPS     14.07.18 19:28l 252 Lines 12467 Bytes #999 (0) @ WW
BID : 9711_LU9DCE
Read: GUEST
Subj: SAT TLE 01 07 2018
Path: IZ3LSV<IW8PGT<IR2UBX<DB0RES<DB0OVN<DB0GOS<ON0AR<OZ5BBS<CX2SA<OK2PEN<
      LU9DCE
Sent: 180701/0700Z 9711@LU9DCE.TOR.BA.ARG.SOAM BPQ6.0.16


            __    _  _  ___  ____   ___  ____    ____  ____  ____
           (  )  / )( \/ _ \(    \ / __)(  __)  (  _ \(  _ \/ ___)
           / (_/\) \/ (\__  )) D (( (__  ) _)    ) _ ( ) _ (\___ \
           \____/\____/(___/(____/ \___)(____)  (____/(____/(____/
               ESTACION DE PACKET RADIO - BUENOS AIRES (GF05OM)
                   BOLETINES INFORMATIVOS PROGRAMADOS (BIP)
                    LU9DCE@GMX.COM - RF 145070 @ 1200 BAUD
                   AXIP NETROM -- LU9DCE.DYNU.COM UDP 10093

+------------------------------------------------------------------------------+
OSCAR 7
1 07530U 74089B   18181.89916536 -.00000041  00000-0  23418-4 0  9997
2 07530 101.6878 149.0143 0011832 310.7667 105.6045 12.53633140996312
OSCAR 11 (UoSAT 2)
1 14781U 84021B   18181.89955701 +.00000053 +00000-0 +12647-4 0  9991
2 14781 097.6478 217.5304 0009528 045.8321 314.3675 14.83014540825478
OSCAR 19 (LUSAT)
1 20442U 90005G   18181.89896578 -.00000010 +00000-0 +12433-4 0  9994
2 20442 098.6105 120.3067 0012888 107.9243 252.3347 14.32899015485796
EYESAT A
1 22825U 93061C   18181.93440509 -.00000008 +00000-0 +14641-4 0  9990
2 22825 098.8633 158.2995 0007557 312.2989 047.7551 14.30033638291265
ITAMSAT
1 22826U 93061D   18181.94804144 -.00000014 +00000-0 +12338-4 0  9999
2 22826 098.8574 158.3494 0007948 300.3593 059.6802 14.30365188291470
RADIO ROSTO
1 23439U 94085A   18181.82142830 -.00000039 +00000-0 +11311-3 0  9997
2 23439 064.8180 326.7823 0156881 179.6016 292.0896 11.27567365968103
JAS 2
1 24278U 96046B   18181.61436371 -.00000016 +00000-0 +16398-4 0  9997
2 24278 098.5167 018.5195 0351398 076.1357 287.8611 13.53084300079802
TECHSAT 1B
1 25397U 98043D   18181.87707331 -.00000019 +00000-0 +10866-4 0  9991
2 25397 098.6503 122.0894 0001470 030.4841 329.6423 14.23647667037451
ISS (ZARYA)
1 25544U 98067A   18181.85702480 +.00001727 +00000-0 +33490-4 0  9993
2 25544 051.6430 310.5700 0003773 248.6425 248.9286 15.53993048120647
PCSAT
1 26931U 01043C   18181.49909648 -.00000055 +00000-0 +10918-4 0  9991
2 26931 067.0495 195.0605 0007999 272.7699 087.2486 14.30509451874383
SAUDISAT 1C
1 27607U 02058C   18181.90348175 -.00000023 +00000-0 +17573-4 0  9996
2 27607 064.5558 048.1089 0066697 325.4101 034.2671 14.75461256834859
CUTE-1
1 27844U 03031E   18181.95940778 +.00000036 +00000-0 +36161-4 0  9990
2 27844 098.6859 190.4123 0009277 339.0914 020.9883 14.22120455778116
CUBESAT XI 4
1 27848U 03031J   18181.92257855 +.00000028 +00000-0 +32714-4 0  9999
2 27848 098.6945 190.7787 0009403 350.0114 010.0875 14.21723789777984
MOZHAYETS 4
1 27939U 03042A   18182.24041847  .00000082  00000-0  23182-4 0  9999
2 27939  97.9926 321.0127 0014369 103.2106  15.6154 14.66697094788878
CUBESAT XI 5
1 28895U 05043F   18181.94986088 +.00000101 +00000-0 +28098-4 0  9998
2 28895 097.9110 332.8489 0017461 030.4958 329.7257 14.63558331675659
CUTE-1.7+APD II
1 32785U 08021C   18181.83193698 +.00000196 +00000-0 +26873-4 0  9998
2 32785 097.5464 193.3585 0013031 000.6170 359.5061 14.88138877551137
DELFI C3
1 32789U 08021G   18181.93109478 +.00000663 +00000-0 +49471-4 0  9994
2 32789 097.5108 236.3926 0010783 247.5476 112.4610 15.06124800553753
SEEDS
1 32791U 08021J   18181.76406998 +.00000204 +00000-0 +26192-4 0  9991
2 32791 097.5352 198.6834 0012743 340.3737 019.6990 14.90576500551459
YUBELEINY
1 32953U 08025A   18181.88261386 +.00000011 +00000-0 +44113-5 0  9998
2 32953 082.5026 004.1601 0019157 177.4225 182.6957 12.43083797458470
PRISM (HITOMI)
1 33493U 09002B   18181.94439454 +.00000788 +00000-0 +75325-4 0  9993
2 33493 098.1296 084.5637 0014099 271.8331 088.1277 14.96249150512406
KKS-1 (KISEKI)
1 33499U 09002H   18181.94672246 +.00000091 +00000-0 +21450-4 0  9994
2 33499 098.3565 004.1597 0007989 245.8888 114.1485 14.75340595506781
SWISSCUBE
1 35932U 09051B   18181.97308604  .00000103  00000-0  34287-4 0  9995
2 35932  98.5472 333.4657 0008126 159.4758 200.6767 14.56171414465441
BEESAT
1 35933U 09051C   18181.93062366 +.00000098 +00000-0 +33180-4 0  9998
2 35933 098.5511 334.9788 0006043 169.4303 190.7022 14.56274076465463
ITUPSAT 1
1 35935U 09051E   18181.92441935 +.00000081 +00000-0 +29846-4 0  9998
2 35935 098.5624 335.2251 0008424 168.1086 192.0311 14.55450058465290
XIWANG-1 (HOPE-1)
1 36122U 09072B   18181.92142577 -.00000025 +00000-0 +43892-4 0  9996
2 36122 100.0744 195.9139 0008282 081.8508 278.3545 13.16345108410358
TISAT 1
1 36799U 10035E   18181.87540700  .00000350  00000-0  41635-4 0  9994
2 36799  98.1084 318.4549 0012925 157.9117 202.2660 14.90822884432193
JUGNU
1 37839U 11058B   18181.48032594  .00000310  00000-0  23485-4 0  9999
2 37839  19.9621 316.6465 0019083  33.5438  20.1537 14.12622398347255
SRMSAT
1 37841U 11058D   18180.89731723  .00000295  00000-0  16918-4 0  9991
2 37841  19.9736   9.6436 0011793 270.4289 223.6725 14.10608997346679
M-CUBED/EXP-1 PRIME
1 37855U 11061F   18181.90745586 +.00001160 +00000-0 +66793-4 0  9993
2 37855 101.7154 251.4579 0176395 041.7107 319.7400 15.04507271363247
HORYU 2
1 38340U 12025D   18181.63657985 +.00000161 +00000-0 +31643-4 0  9995
2 38340 098.3650 203.8187 0011963 161.8288 198.3350 14.75568888318689
STRAND 1
1 39090U 13009E   18181.56679497 +.00000015 +00000-0 +20632-4 0  9999
2 39090 098.5204 027.7768 0008002 256.5207 103.5087 14.35030928279721
SOMP
1 39134U 13015E   18181.95821701 +.00001171 +00000-0 +64776-4 0  9996
2 39134 064.8645 082.3621 0011346 215.7332 144.3036 15.19221380286611
BEESAT 3
1 39135U 13015F   18181.93683416 +.00000936 +00000-0 +57373-4 0  9997
2 39135 064.8697 095.9650 0019186 237.4349 122.4924 15.16722800286343
BEESAT 2
1 39136U 13015G   18181.91138761 +.00000861 +00000-0 +54311-4 0  9990
2 39136 064.8703 098.8714 0021645 234.8179 125.0920 15.16188428286280
CUBEBUG 1
1 39153U 13018D   18181.82667839  .00000148  00000-0  26409-4 0  9990
2 39153  97.9798 276.9955 0015533 261.0602  98.8852 14.80407902279608
ZACUBE
1 39417U 13066B   18181.96309136 +.00000169 +00000-0 +27586-4 0  9994
2 39417 097.5858 209.8662 0060670 109.6214 251.1561 14.80948039248835
TRITON 1
1 39427U 13066M   18181.93562852 +.00000163 +00000-0 +34130-4 0  9995
2 39427 097.6416 176.9528 0113104 214.6842 144.6953 14.67680472246408
GOMX 1
1 39430U 13066Q   18181.88166061 +.00000141 +00000-0 +35088-4 0  9994
2 39430 097.6983 157.7697 0150065 287.5612 070.9243 14.59092272245145
HUMSAT D
1 39433U 13066T   18181.92370346 +.00000319 +00000-0 +36706-4 0  9990
2 39433 097.6026 237.8195 0031877 039.3487 321.0040 14.91886885249293
CUBEBUG 2
1 39440U 13066AA  18181.90551147 +.00000177 +00000-0 +31518-4 0  9994
2 39440 097.6004 196.3273 0081296 150.0170 210.5733 14.75685482246743
FUNCUBE 1
1 39444U 13066AE  18181.88424269 +.00000249 +00000-0 +37042-4 0  9997
2 39444 097.5867 211.3340 0059823 105.3238 255.4598 14.81731122247091
UWE-3
1 39446U 13066AG  18181.83708628 +.00000178 +00000-0 +30246-4 0  9998
2 39446 097.5916 202.6031 0071474 130.4741 230.2731 14.78219909246541
SPROUT
1 39770U 14029E   18181.85111858  .00000780  00000-0  93431-4 0  9997
2 39770  97.8772 282.7832 0009514 155.7731 204.3937 14.86879985222399
UNISAT 6
1 40012U 14033C   18181.72474750 +.00000166 +00000-0 +32256-4 0  9998
2 40012 097.8065 057.4947 0058999 154.4207 205.9942 14.73831829216694
DUCHIFAT 1
1 40021U 14033M   18181.82240599 +.00000239 +00000-0 +30392-4 0  9991
2 40021 097.9159 100.5664 0014045 128.9305 231.3167 14.90327535218983
QB50P1
1 40025U 14033R   18181.72443855 +.00000241 +00000-0 +31795-4 0  9995
2 40025 097.9050 097.0956 0013403 135.6487 224.5805 14.88729688218293
CHUBUSAT 1
1 40300U 14070C   18181.77381255  .00000815  00000-0  39020-4 0  9998
2 40300  97.3619 259.1775 0019206 212.9163 263.2348 15.21603053202347
NUDT-PHONESAT
1 40900U 15049B   18181.85440445  .00001970  00000-0  90801-4 0  9994
2 40900  97.4404 189.9482 0013015 349.5471  10.5492 15.21396120153995
ZDPS 2A
1 40901U 15049C   18181.92851815 +.00000817 +00000-0 +44520-4 0  9996
2 40901 097.4581 188.0598 0013549 357.6080 002.5087 15.17125160153741
ZDPS 2B
1 40902U 15049D   18181.97005458 +.00000766 +00000-0 +42181-4 0  9990
2 40902 097.4481 186.1011 0013534 354.5022 005.6061 15.16919357153739
XW-2A
1 40903U 15049E   18182.14207137  .00001784  00000-0  45885-4 0  9994
2 40903  97.3828 217.1357 0013617 347.3290  12.7612 15.40569169155957
KAITUO 1A
1 40904U 15049F   18182.07900567  .00000700  00000-0  40913-4 0  9998
2 40904  97.4580 185.4035 0014836 356.8724  88.7952 15.15044164153600
OBJECT G
1 40905U 15049G   18181.96284143 +.00000366 +00000-0 +23716-4 0  9991
2 40905 097.4585 183.3422 0015432 349.4914 010.5993 15.13992799153506
XW-2C
1 40906U 15049H   18181.92242512 +.00000593 +00000-0 +35035-4 0  9991
2 40906 097.4594 185.1618 0014628 349.0426 011.0486 15.15220224153573
XW-2D
1 40907U 15049J   18181.93953377 +.00000633 +00000-0 +36999-4 0  9996
2 40907 097.4569 184.8739 0013945 347.0823 013.0050 15.15373238153580
LILACSAT 2
1 40908U 15049K   18181.96284246 +.00000341 +00000-0 +22603-4 0  9995
2 40908 097.4681 184.2378 0015634 348.1873 011.8989 15.13529506153455
XW-2F
1 40910U 15049M   18181.94324303 +.00000960 +00000-0 +52518-4 0  9990
2 40910 097.4569 186.2175 0014505 342.2464 017.8261 15.16579751153669
XW-2B
1 40911U 15049N   18181.95755115 +.00000612 +00000-0 +35945-4 0  9990
2 40911 097.4603 185.4345 0013868 347.6597 012.4294 15.15316745153484
KAITUO 1B
1 40912U 15049P   18181.86324255 +.00001453 +00000-0 +72970-4 0  9991
2 40912 097.4491 188.9961 0014380 330.1040 150.6080 15.18805169153745
TIANWANG 1C (TW-1C)
1 40926U 15051B   18182.08713258  .00008382  00000-0  15477-3 0  9995
2 40926  97.1819 224.3660 0008499 216.3511 199.8413 15.49301635155463
